Le nostre stazioni meteo in Italia

Pubblicità
Il mio iltempo24.it
Perugia, Italia (16181): Temperatura & dewpoint: 09.11.2018 08:00:00 - 15.11.2018 08:00:00 (CET)Perugia, Italia (16181): velocità del vento: 09.11.2018 08:00:00 - 15.11.2018 08:00:00 (CET)Perugia, Italia (16181): direzione del vento: 09.11.2018 08:00:00 - 15.11.2018 08:00:00 (CET)Perugia, Italia (16181): visibility: 09.11.2018 08:00:00 - 15.11.2018 08:00:00 (CET)
Data & Tempo tt [°C] td [°C] ff [km/h] ff [kn] dd vv [km]
15.11.2018 08:00:00 5,0 4,0 2 1 - 0,1
15.11.2018 07:00:00 4,0 4,0 2 1 - 0,3
15.11.2018 06:00:00 5,0 5,0 4 2 - 0,1
15.11.2018 05:00:00 6,0 6,0 2 1 - 0,1
15.11.2018 04:00:00 6,0 6,0 2 1 - -
15.11.2018 03:00:00 5,0 5,0 2 1 - 0,1
15.11.2018 02:00:00 6,0 6,0 5 3 N 0,1
15.11.2018 01:00:00 7,0 7,0 4 2 - -
15.11.2018 00:00:00 6,0 6,0 2 1 - 0,1
14.11.2018 23:00:00 7,0 6,0 2 1 - 0,1
14.11.2018 22:00:00 7,0 7,0 4 2 - 0,1
14.11.2018 21:00:00 8,0 8,0 5 3 SE 0,1
14.11.2018 20:00:00 8,0 7,0 2 1 - 0,1
14.11.2018 19:00:00 8,0 8,0 2 1 - 0,1
14.11.2018 18:00:00 9,0 9,0 2 1 - 0,1
14.11.2018 17:00:00 9,0 9,0 2 1 - 0,4
14.11.2018 16:00:00 10,0 9,0 4 2 - 1,5
14.11.2018 15:00:00 10,0 10,0 4 2 - 1,5
14.11.2018 14:00:00 10,0 9,0 4 2 - 1,0
14.11.2018 13:00:00 9,0 9,0 4 2 S 1,5
14.11.2018 12:00:00 9,0 9,0 2 1 - 0,5
14.11.2018 11:00:00 8,0 8,0 5 3 E 0,4
14.11.2018 10:00:00 8,0 8,0 4 2 - 0,4
14.11.2018 09:00:00 8,0 7,0 4 2 N 0,8
14.11.2018 08:00:00 8,0 7,0 5 3 NNE 0,8
14.11.2018 07:00:00 7,0 7,0 5 3 ENE 0,3
14.11.2018 06:00:00 7,0 7,0 8 4 NNE 0,5
14.11.2018 05:00:00 8,0 8,0 8 4 NNE 1,0
14.11.2018 04:00:00 7,0 7,0 5 3 ENE 0,7
14.11.2018 03:00:00 7,0 7,0 5 3 E 0,4
14.11.2018 02:00:00 7,0 7,0 11 6 NNE 0,7
14.11.2018 01:00:00 8,0 8,0 5 3 N 1,7
14.11.2018 00:00:00 8,0 8,0 2 1 - 0,2
13.11.2018 23:00:00 8,0 8,0 2 1 - 0,2
13.11.2018 22:00:00 8,0 7,0 2 1 - 0,2
13.11.2018 21:00:00 8,0 8,0 5 3 N 0,2
13.11.2018 20:00:00 8,0 8,0 8 4 NNE 3,0
13.11.2018 19:00:00 9,0 9,0 4 2 E 3,0
13.11.2018 18:00:00 10,0 9,0 4 2 ESE 6
13.11.2018 17:00:00 12,0 11,0 2 1 - 10
13.11.2018 16:00:00 13,0 11,0 2 1 - 10
13.11.2018 15:00:00 12,0 10,0 4 2 - 6
13.11.2018 14:00:00 11,0 10,0 4 2 - 3,0
13.11.2018 13:00:00 10,0 10,0 4 2 - 2,5
13.11.2018 12:00:00 9,0 9,0 2 1 - 1,2
13.11.2018 11:00:00 9,0 9,0 2 1 - 0,8
13.11.2018 10:00:00 8,0 8,0 4 2 - 0,4
13.11.2018 09:00:00 7,0 7,0 5 3 E 0,4
13.11.2018 08:00:00 6,0 6,0 5 3 E 0,4
13.11.2018 07:00:00 7,0 7,0 5 3 NE 0,4
13.11.2018 06:00:00 7,0 7,0 5 3 NE 0,5
13.11.2018 05:00:00 7,0 7,0 4 2 - 2,3
13.11.2018 04:00:00 7,0 7,0 2 1 - 0,2
13.11.2018 03:00:00 7,0 7,0 4 2 - 0,1
13.11.2018 02:00:00 6,0 6,0 4 2 E 0,1
13.11.2018 01:00:00 7,0 6,0 4 2 E 0,1
13.11.2018 00:00:00 6,0 6,0 2 1 - 2,3
12.11.2018 23:00:00 7,0 7,0 4 2 SO 0,9
12.11.2018 22:00:00 8,0 8,0 2 1 - 2,0
12.11.2018 21:00:00 9,0 8,0 2 1 - 0,4
12.11.2018 20:00:00 9,0 9,0 2 1 N 2,0
12.11.2018 19:00:00 9,0 9,0 4 2 N 9
12.11.2018 18:00:00 11,0 10,0 2 1 - 9
12.11.2018 17:00:00 13,0 11,0 2 1 - 10
12.11.2018 16:00:00 13,0 11,0 4 2 SSE 10
12.11.2018 15:00:00 14,0 12,0 2 1 - 10
12.11.2018 14:00:00 13,0 11,0 2 1 - 6
12.11.2018 13:00:00 11,0 11,0 2 1 - 2,0
12.11.2018 12:00:00 10,0 10,0 2 1 - 1,5
12.11.2018 11:00:00 9,0 9,0 2 1 - 0,9
12.11.2018 10:00:00 9,0 8,0 4 2 - 0,4
12.11.2018 09:00:00 8,0 8,0 8 4 NNO 0,3
12.11.2018 08:00:00 7,0 7,0 5 3 NE 0,7
12.11.2018 07:00:00 6,0 6,0 4 2 ENE 0,1
12.11.2018 06:00:00 5,0 5,0 5 3 E 0,3
12.11.2018 05:00:00 7,0 7,0 2 1 - 6
12.11.2018 04:00:00 7,0 7,0 8 4 N 0,2
12.11.2018 03:00:00 7,0 7,0 9 5 N 6
12.11.2018 02:00:00 7,0 7,0 4 2 - 10
12.11.2018 01:00:00 8,0 8,0 9 5 N 10
12.11.2018 00:00:00 9,0 8,0 4 2 - 10
11.11.2018 23:00:00 9,0 8,0 9 5 N 10
11.11.2018 22:00:00 9,0 9,0 9 5 N 10
11.11.2018 21:00:00 10,0 9,0 9 5 N 10
11.11.2018 20:00:00 11,0 10,0 5 3 N 10
11.11.2018 19:00:00 11,0 10,0 8 4 N 10
11.11.2018 18:00:00 13,0 11,0 4 2 NNE 10
11.11.2018 17:00:00 16,0 11,0 5 3 OSO 10
11.11.2018 16:00:00 17,0 11,0 2 1 SSE 10
11.11.2018 15:00:00 18,0 10,0 4 2 - 10
11.11.2018 14:00:00 17,0 9,0 2 1 - 10
11.11.2018 13:00:00 14,0 9,0 4 2 - 10
11.11.2018 12:00:00 12,0 9,0 5 3 O 9
11.11.2018 11:00:00 11,0 9,0 2 1 - 7
11.11.2018 10:00:00 9,0 8,0 2 1 - 3,0
11.11.2018 09:00:00 6,0 6,0 4 2 - 3,0
11.11.2018 08:00:00 5,0 5,0 5 3 ENE 1,5
11.11.2018 07:00:00 5,0 5,0 5 3 NNO 8
11.11.2018 06:00:00 5,0 5,0 8 4 NNO 6
11.11.2018 05:00:00 6,0 5,0 2 1 - 0,2
11.11.2018 04:00:00 6,0 5,0 5 3 NO 9
11.11.2018 03:00:00 7,0 6,0 4 2 - 10
11.11.2018 02:00:00 7,0 6,0 5 3 NO 10
11.11.2018 01:00:00 7,0 6,0 9 5 N 10
11.11.2018 00:00:00 8,0 7,0 2 1 - 10
10.11.2018 23:00:00 8,0 7,0 8 4 N 10
10.11.2018 22:00:00 9,0 8,0 11 6 N 10
10.11.2018 21:00:00 9,0 8,0 9 5 N 10
10.11.2018 20:00:00 10,0 8,0 5 3 NNE 10
10.11.2018 19:00:00 11,0 10,0 8 4 N 10
10.11.2018 18:00:00 12,0 10,0 4 2 - 10
10.11.2018 17:00:00 15,0 10,0 2 1 SSE 10
10.11.2018 16:00:00 16,0 11,0 4 2 - 10
10.11.2018 15:00:00 16,0 11,0 5 3 SSE 10
10.11.2018 14:00:00 15,0 11,0 4 2 - 10
10.11.2018 13:00:00 15,0 11,0 4 2 - 9
10.11.2018 12:00:00 12,0 10,0 8 4 OSO 8
10.11.2018 11:00:00 10,0 9,0 5 3 O 7
10.11.2018 10:00:00 9,0 8,0 5 3 N 10
10.11.2018 09:00:00 8,0 8,0 9 5 N 0,3
10.11.2018 08:00:00 7,0 7,0 4 2 - 2,0
10.11.2018 07:00:00 6,0 6,0 4 2 N 5
10.11.2018 06:00:00 6,0 6,0 4 2 - 7
10.11.2018 05:00:00 7,0 7,0 8 4 NNO 10
10.11.2018 04:00:00 7,0 7,0 9 5 N 10
10.11.2018 03:00:00 8,0 7,0 8 4 NNE 10
10.11.2018 02:00:00 9,0 8,0 8 4 N 10
10.11.2018 01:00:00 9,0 8,0 8 4 NNE 10
10.11.2018 00:00:00 9,0 7,0 9 5 N 10
09.11.2018 23:00:00 10,0 9,0 9 5 N 10
09.11.2018 22:00:00 10,0 9,0 9 5 N 10
09.11.2018 21:00:00 10,0 9,0 11 6 N 10
09.11.2018 20:00:00 11,0 9,0 8 4 NNE 10
09.11.2018 19:00:00 11,0 10,0 8 4 NNE 10
09.11.2018 18:00:00 12,0 10,0 4 2 - 10
09.11.2018 17:00:00 15,0 11,0 5 3 S 10
09.11.2018 16:00:00 17,0 9,0 2 1 - 10
09.11.2018 15:00:00 16,0 11,0 2 1 - 10
09.11.2018 14:00:00 16,0 10,0 4 2 - 10
09.11.2018 13:00:00 13,0 10,0 2 1 - 10
09.11.2018 12:00:00 12,0 10,0 4 2 - 8
09.11.2018 11:00:00 10,0 9,0 2 1 - 2,5
09.11.2018 10:00:00 8,0 8,0 4 2 - 2,5
09.11.2018 09:00:00 7,0 7,0 5 3 N 2,0
09.11.2018 08:00:00 6,0 6,0 13 7 NNO 0,3

tt = Temperatura
td = dewpoint
ff = velocità del vento
dd = direzione del vento
vv = visibility

Stazioni seguenti

WeatherPro
AMSI
MeteoEarth